GW5447 Weather Reports


Display with metric or nautical units.
time (UTC)temp
F
wind
direction
speed
MPH
gust
MPH
rain 1hr
in
rain 24hr
in
rain mn
in
humidity
%
barometer
mb
20260505152007 71 221 5.0 8.0 0.00 0.00 0.00 57 1008.4
20260505151503 71 61 1.0 2.0 0.00 0.00 0.00 59 1008.6
20260505151000 70 251 1.0 2.0 0.00 0.00 0.00 61 1008.4
20260505150456 70 247 0.0 2.0 0.00 0.00 0.00 63 1008.3
20260505140427 67 170 0.0 0.0 0.00 0.00 0.00 70 1007.8
20260505124840 61 355 0.0 0.0 0.00 0.00 0.00 79 1008.1
20260505124337 61 164 0.0 2.0 0.00 0.00 0.00 80 1007.8
20260505123833 61 167 0.0 2.0 0.00 0.00 0.00 80 1007.9
20260505123330 60 205 0.0 1.0 0.00 0.00 0.00 80 1007.8
20260505122826 60 194 1.0 2.0 0.00 0.00 0.00 81 1007.9
20260505122323 60 186 0.0 0.0 0.00 0.00 0.00 81 1007.7
20260505121820 60 196 0.0 1.0 0.00 0.00 0.00 82 1007.5
20260505121317 60 193 0.0 0.0 0.00 0.00 0.00 82 1007.3
20260505120813 59 178 0.0 1.0 0.00 0.00 0.00 83 1006.8
20260505120309 59 204 0.0 1.0 0.00 0.00 0.00 83 1006.7
20260505115808 59 244 1.0 1.0 0.00 0.00 0.00 82 1007.0
20260505115306 60 212 0.0 2.0 0.00 0.00 0.00 81 1006.7
20260505114803 60 184 0.0 1.0 0.00 0.00 0.00 81 1007.0
20260505114259 60 183 0.0 0.0 0.00 0.00 0.00 81 1006.8
20260505113756 60 183 0.0 1.0 0.00 0.00 0.00 81 1007.0
20260505113252 60 180 0.0 2.0 0.00 0.00 0.00 81 1006.9
20260505112748 60 150 0.0 1.0 0.00 0.00 0.00 80 1007.0
20260505112246 60 140 0.0 0.0 0.00 0.00 0.00 80 1007.0
20260505111746 60 216 1.0 2.0 0.00 0.00 0.00 80 1007.1
20260505111242 60 182 0.0 1.0 0.00 0.00 0.00 79 1007.5
20260505110738 60 201 0.0 1.0 0.00 0.00 0.00 78 1007.4
20260505110236 60 155 0.0 2.0 0.00 0.00 0.00 77 1007.5
20260505102212 62 250 0.0 2.0 0.00 0.00 0.00 71 1007.2
20260505101710 62 158 0.0 1.0 0.00 0.00 0.00 71 1007.2
20260505101206 62 191 0.0 1.0 0.00 0.00 0.00 71 1007.3
20260505100702 62 220 0.0 1.0 0.00 0.00 0.00 72 1007.5
20260505100159 61 216 0.0 4.0 0.00 0.00 0.00 73 1007.2
20260505095655 61 160 0.0 2.0 0.00 0.00 0.00 73 1007.5
20260505095153 61 221 0.0 1.0 0.00 0.00 0.00 73 1007.3
20260505094649 61 188 0.0 0.0 0.00 0.00 0.00 73 1007.0
20260505094145 61 181 0.0 0.0 0.00 0.00 0.00 73 1007.3
20260505093642 61 180 0.0 1.0 0.00 0.00 0.00 72 1007.2
20260505093139 62 179 0.0 0.0 0.00 0.00 0.00 72 1007.1
20260505092636 62 216 0.0 1.0 0.00 0.00 0.00 71 1006.9
20260505092135 62 166 0.0 0.0 0.00 0.00 0.00 69 1006.9
20260505091631 62 218 2.0 9.0 0.00 0.00 0.00 68 1006.9
20260505091129 62 157 0.0 0.0 0.00 0.00 0.00 69 1006.9
20260505090626 62 245 0.0 1.0 0.00 0.00 0.00 68 1006.9
20260505090125 62 207 0.0 3.0 0.00 0.00 0.00 68 1006.9
20260505085622 62 233 0.0 3.0 0.00 0.00 0.00 68 1006.9
20260505085120 63 181 0.0 1.0 0.00 0.00 0.00 68 1006.8
20260505084617 63 230 0.0 1.0 0.00 0.00 0.00 67 1006.7
20260505084116 63 213 0.0 4.0 0.00 0.00 0.00 66 1006.5
20260505083613 64 231 0.0 1.0 0.00 0.00 0.00 66 1006.5
20260505083109 64 243 0.0 1.0 0.00 0.00 0.00 65 1006.5
20260505082605 64 144 0.0 3.0 0.00 0.00 0.00 65 1006.3
20260505082102 63 247 1.0 2.0 0.00 0.00 0.00 66 1006.2
20260505081559 63 219 1.0 3.0 0.00 0.00 0.00 66 1006.0
20260505081056 64 215 1.0 1.0 0.00 0.00 0.00 66 1006.0
20260505080552 63 260 2.0 3.0 0.00 0.00 0.00 65 1005.9
20260505080049 63 217 2.0 2.0 0.00 0.00 0.00 68 1005.7
20260505075544 63 239 0.0 1.0 0.00 0.00 0.00 67 1005.5
20260505075042 64 196 0.0 2.0 0.00 0.00 0.00 67 1005.6
20260505074538 63 202 0.0 3.0 0.00 0.00 0.00 67 1005.5
20260505074036 63 158 0.0 0.0 0.00 0.00 0.00 69 1005.7
20260505073533 63 186 0.0 1.0 0.00 0.00 0.00 69 1005.4
20260505073032 63 157 0.0 1.0 0.00 0.00 0.00 69 1005.6
20260505072527 63 140 0.0 1.0 0.00 0.00 0.00 68 1005.5
20260505072023 63 179 0.0 1.0 0.00 0.00 0.00 70 1005.5
20260505071519 63 230 1.0 1.0 0.00 0.00 0.00 70 1005.5
20260505071017 63 185 0.0 0.0 0.00 0.00 0.00 70 1005.4
20260505070514 63 147 0.0 0.0 0.00 0.00 0.00 71 1005.6
20260505070010 62 126 0.0 1.0 0.00 0.00 0.00 70 1005.5
20260505065506 62 201 0.0 2.0 0.00 0.00 0.00 72 1005.3
20260505065003 62 152 0.0 1.0 0.00 0.00 0.00 73 1005.5
20260505064459 61 210 0.0 0.0 0.00 0.00 0.00 73 1005.4
20260505063958 61 198 0.0 0.0 0.00 0.00 0.00 73 1005.3
20260505063455 61 183 0.0 0.0 0.00 0.00 0.00 73 1005.2
20260505062951 61 145 0.0 0.0 0.00 0.00 0.00 74 1005.2
20260505062448 61 152 0.0 0.0 0.00 0.00 0.00 73 1005.1
20260505061944 61 143 0.0 0.0 0.00 0.00 0.00 76 1005.2
20260505061443 61 196 0.0 0.0 0.00 0.00 0.00 76 1005.1
20260505060940 61 191 0.0 0.0 0.00 0.00 0.00 77 1005.4
20260505060437 61 140 0.0 0.0 0.00 0.00 0.00 77 1005.4
20260505055933 61 169 0.0 0.0 0.00 0.00 0.00 77 1005.3
20260505055429 61 183 0.0 0.0 0.00 0.00 0.00 77 1005.4
20260505054926 62 191 0.0 0.0 0.00 0.00 0.00 77 1005.5
20260505054424 62 140 0.0 0.0 0.00 0.00 0.00 76 1005.5
20260505053921 63 166 0.0 1.0 0.00 0.00 0.00 75 1005.4
20260505053418 64 212 0.0 1.0 0.00 0.00 0.00 73 1005.4
20260505052915 64 162 0.0 1.0 0.00 0.00 0.00 69 1005.6
20260505052412 64 142 0.0 1.0 0.00 0.00 0.00 67 1005.6
20260505051909 64 193 1.0 1.0 0.00 0.00 0.00 68 1005.8
20260505051406 64 192 0.0 0.0 0.00 0.00 0.00 67 1006.0
20260505050904 64 195 0.0 0.0 0.00 0.00 0.00 68 1005.9
20260505050403 64 195 0.0 1.0 0.00 0.00 0.00 68 1006.0
20260505041330 66 194 0.0 0.0 0.00 0.00 0.00 63 1005.8
20260505040827 66 95 0.0 1.0 0.00 0.00 0.00 64 1005.8
20260505040325 66 193 0.0 1.0 0.00 0.00 0.00 64 1005.9
20260505035821 66 205 0.0 1.0 0.00 0.00 0.00 64 1005.9
20260505035317 66 213 0.0 0.0 0.00 0.00 0.00 65 1005.7
20260505034814 65 256 0.0 1.0 0.00 0.00 0.00 65 1005.9
20260505034311 65 260 0.0 1.0 0.00 0.00 0.00 65 1005.8
20260505033808 65 178 0.0 1.0 0.00 0.00 0.00 66 1005.9
20260505033305 64 198 0.0 0.0 0.00 0.00 0.00 68 1005.8
20260505032803 64 174 0.0 1.0 0.00 0.00 0.00 69 1005.8
20260505032259 64 199 0.0 0.0 0.00 0.00 0.00 70 1005.8
20260505031756 63 172 0.0 0.0 0.00 0.00 0.00 71 1005.8
20260505031253 63 180 0.0 0.0 0.00 0.00 0.00 71 1005.9
20260505030750 63 200 0.0 0.0 0.00 0.00 0.00 72 1005.9
20260505030246 63 169 0.0 0.0 0.00 0.00 0.00 72 1005.7
20260505025741 63 174 0.0 0.0 0.00 0.00 0.00 72 1005.9
20260505025240 63 181 0.0 0.0 0.00 0.00 0.00 72 1005.8
20260505024738 63 180 0.0 0.0 0.00 0.00 0.00 71 1005.5
20260505024235 64 185 0.0 0.0 0.00 0.00 0.00 71 1005.6
20260505023732 64 165 0.0 0.0 0.00 0.00 0.00 71 1005.6
20260505023229 64 166 0.0 0.0 0.00 0.00 0.00 70 1005.8
20260505022726 64 185 0.0 0.0 0.00 0.00 0.00 69 1005.6
20260505022223 65 186 0.0 0.0 0.00 0.00 0.00 69 1005.7
20260505021720 64 196 0.0 0.0 0.00 0.00 0.00 69 1005.6
20260505021217 64 185 0.0 0.0 0.00 0.00 0.00 69 1005.6
20260505020713 64 180 0.0 0.0 0.00 0.00 0.00 69 1005.7
20260505020208 64 179 0.0 0.0 0.00 0.00 0.00 69 1005.6
20260505015706 64 179 0.0 0.0 0.00 0.00 0.00 69 1005.5
20260505015203 64 216 0.0 0.0 0.00 0.00 0.00 70 1005.5
20260505014659 63 217 0.0 0.0 0.00 0.00 0.00 70 1005.3
20260505014156 63 216 0.0 0.0 0.00 0.00 0.00 71 1005.3
20260505013654 63 185 0.0 0.0 0.00 0.00 0.00 71 1005.4
20260505013151 63 177 0.0 0.0 0.00 0.00 0.00 72 1005.2
20260505012649 63 236 0.0 0.0 0.00 0.00 0.00 70 1005.2
20260505012146 64 239 0.0 0.0 0.00 0.00 0.00 70 1005.2
20260505011641 64 153 0.0 0.0 0.00 0.00 0.00 69 1005.2
20260505011139 64 147 0.0 0.0 0.00 0.00 0.00 67 1005.2
20260505010639 64 147 0.0 0.0 0.00 0.00 0.00 67 1005.2
20260505010136 65 147 0.0 0.0 0.00 0.00 0.00 66 1005.1
20260505005632 65 146 0.0 0.0 0.00 0.00 0.00 65 1005.0
20260505005130 66 146 0.0 0.0 0.00 0.00 0.00 64 1005.2
20260505004627 66 146 0.0 0.0 0.00 0.00 0.00 63 1005.3
20260505004123 67 178 0.0 0.0 0.00 0.00 0.00 63 1005.2
20260505003620 67 159 0.0 0.0 0.00 0.00 0.00 62 1005.1
20260505003118 67 166 0.0 0.0 0.00 0.00 0.00 61 1005.0
20260505002614 68 191 0.0 0.0 0.00 0.00 0.00 59 1005.1
20260505002112 68 142 0.0 0.0 0.00 0.00 0.00 59 1005.0
20260505001609 69 202 0.0 0.0 0.00 0.00 0.00 57 1005.0
20260505001107 69 193 0.0 0.0 0.00 0.00 0.00 56 1005.1
20260505000603 69 191 0.0 0.0 0.00 0.00 0.00 55 1005.0
20260504235557 71 152 0.0 2.0 0.00 0.00 0.00 53 1005.1
20260504235054 71 190 0.0 0.0 0.00 0.00 0.00 53 1005.1
20260504234551 71 250 2.0 2.0 0.00 0.00 0.00 51 1005.3
20260504234049 71 212 0.0 3.0 0.00 0.00 0.00 51 1005.3
20260504233544 72 230 0.0 4.0 0.00 0.00 0.00 52 1005.2
20260504233041 72 221 0.0 2.0 0.00 0.00 0.00 52 1005.2
20260504232538 72 231 1.0 2.0 0.00 0.00 0.00 52 1005.1
20260504232036 72 230 0.0 0.0 0.00 0.00 0.00 52 1005.1
20260504231532 72 182 0.0 2.0 0.00 0.00 0.00 52 1005.3
20260504231028 72 140 0.0 0.0 0.00 0.00 0.00 51 1005.5
20260504230524 72 203 2.0 3.0 0.00 0.00 0.00 51 1005.6
20260504230023 72 193 0.0 1.0 0.00 0.00 0.00 53 1005.5
20260504225520 72 255 1.0 2.0 0.00 0.00 0.00 52 1005.6
20260504225017 72 96 0.0 1.0 0.00 0.00 0.00 51 1005.7
20260504224514 73 134 0.0 2.0 0.00 0.00 0.00 51 1005.9
20260504224011 73 222 1.0 1.0 0.00 0.00 0.00 51 1006.0
20260504223507 73 160 1.0 4.0 0.00 0.00 0.00 50 1005.9
20260504223003 73 220 1.0 1.0 0.00 0.00 0.00 51 1005.8
20260504222500 72 262 0.0 1.0 0.00 0.00 0.00 53 1006.0
20260504221958 73 196 0.0 3.0 0.00 0.00 0.00 51 1006.2
20260504221455 72 237 1.0 1.0 0.00 0.00 0.00 53 1006.0
20260504220952 72 124 2.0 2.0 0.00 0.00 0.00 53 1006.3
20260504220448 73 128 0.0 1.0 0.00 0.00 0.00 51 1006.2
20260504215945 74 89 2.0 2.0 0.00 0.00 0.00 49 1006.3
20260504215442 74 229 1.0 3.0 0.00 0.00 0.00 50 1006.2
20260504214938 74 188 1.0 3.0 0.00 0.00 0.00 49 1006.2
20260504214435 74 226 1.0 2.0 0.00 0.00 0.00 48 1006.5
20260504213932 75 230 3.0 7.0 0.00 0.00 0.00 46 1006.0
20260504213427 76 345 4.0 7.0 0.00 0.00 0.00 44 1006.2
20260504212925 76 237 1.0 3.0 0.00 0.00 0.00 45 1006.4
20260504212420 76 229 1.0 2.0 0.00 0.00 0.00 45 1006.3
20260504211919 76 246 1.0 3.0 0.00 0.00 0.00 44 1006.3
20260504211415 77 223 1.0 2.0 0.00 0.00 0.00 44 1006.3
20260504210912 77 255 2.0 2.0 0.00 0.00 0.00 43 1006.2
20260504210409 77 229 2.0 3.0 0.00 0.00 0.00 46 1006.0
20260504205906 76 206 2.0 8.0 0.00 0.00 0.00 44 1005.8
20260504205404 75 230 0.0 3.0 0.00 0.00 0.00 49 1006.3
20260504204902 74 95 1.0 2.0 0.00 0.00 0.00 48 1006.2
20260504204400 73 54 1.0 2.0 0.00 0.00 0.00 51 1006.5
20260504203859 72 122 3.0 4.0 0.00 0.00 0.00 52 1006.6
20260504203355 72 205 0.0 3.0 0.00 0.00 0.00 53 1006.7
20260504202852 73 86 1.0 4.0 0.00 0.00 0.00 53 1006.9
20260504202349 73 70 2.0 4.0 0.00 0.00 0.00 51 1006.8
20260504201845 74 2 1.0 2.0 0.00 0.00 0.00 50 1006.9
20260504201343 73 221 0.0 2.0 0.00 0.00 0.00 54 1007.1
20260504200840 73 181 1.0 4.0 0.00 0.00 0.00 51 1007.3
20260504200337 73 240 2.0 3.0 0.00 0.00 0.00 51 1007.1
20260504195833 73 80 3.0 6.0 0.00 0.00 0.00 47 1007.2
20260504195328 75 334 2.0 4.0 0.00 0.00 0.00 48 1007.6
20260504194826 78 22 4.0 9.0 0.00 0.00 0.00 44 1007.1
20260504194322 78 209 1.0 3.0 0.00 0.00 0.00 43 1007.1
20260504193818 77 148 0.0 2.0 0.00 0.00 0.00 46 1007.1
20260504193315 77 165 4.0 9.0 0.00 0.00 0.00 43 1007.2
20260504192814 76 217 1.0 3.0 0.00 0.00 0.00 47 1007.1
20260504192311 76 88 2.0 3.0 0.00 0.00 0.00 47 1007.0
20260504191810 74 281 2.0 2.0 0.00 0.00 0.00 51 1007.1
20260504191307 75 189 1.0 3.0 0.00 0.00 0.00 47 1007.0
20260504190802 76 224 3.0 3.0 0.00 0.00 0.00 46 1006.9
20260504190259 75 204 2.0 3.0 0.00 0.00 0.00 47 1006.7
20260504185755 76 183 0.0 4.0 0.00 0.00 0.00 47 1006.8
20260504185252 76 206 1.0 1.0 0.00 0.00 0.00 47 1007.2
20260504184748 77 260 2.0 3.0 0.00 0.00 0.00 43 1006.9
20260504184244 76 87 2.0 3.0 0.00 0.00 0.00 45 1007.0
20260504183740 77 220 0.0 4.0 0.00 0.00 0.00 44 1007.0
20260504183237 77 223 1.0 3.0 0.00 0.00 0.00 46 1006.9
20260504182735 76 206 1.0 4.0 0.00 0.00 0.00 49 1007.1
20260504182232 75 136 1.0 2.0 0.00 0.00 0.00 47 1007.0
20260504181730 75 202 0.0 1.0 0.00 0.00 0.00 49 1007.1
20260504181227 76 163 2.0 3.0 0.00 0.00 0.00 45 1007.0
20260504180726 77 189 1.0 3.0 0.00 0.00 0.00 44 1007.1
20260504180224 76 200 1.0 1.0 0.00 0.00 0.00 50 1007.2
20260504175722 75 134 2.0 6.0 0.00 0.00 0.00 48 1007.1
20260504175218 75 304 1.0 4.0 0.00 0.00 0.00 48 1007.3
20260504174716 76 232 0.0 2.0 0.00 0.00 0.00 46 1007.5
20260504174214 75 216 1.0 2.0 0.00 0.00 0.00 47 1007.4
20260504173710 75 234 1.0 4.0 0.00 0.00 0.00 46 1007.3
20260504173207 75 98 1.0 3.0 0.00 0.00 0.00 48 1007.4
20260504172704 75 20 1.0 2.0 0.00 0.00 0.00 48 1007.4
20260504172200 75 96 2.0 3.0 0.00 0.00 0.00 46 1007.4
20260504171657 75 355 1.0 3.0 0.00 0.00 0.00 45 1007.6
20260504171154 75 244 2.0 7.0 0.00 0.00 0.00 48 1007.5
20260504170650 74 151 1.0 2.0 0.00 0.00 0.00 48 1007.7
20260504170148 74 166 0.0 2.0 0.00 0.00 0.00 51 1007.6
20260504160106 71 216 2.0 7.0 0.00 0.00 0.00 52 1008.4